Terminal Aerodrome Forecast
Issued by NWS Tiyan, Guam

Home | Current Version | Previous Version | Text Only | Print | Product List | Glossary On
Versions: 1 2 3 4 5 6 7 8 9 10 11 12 13 14 15 16 17 18 19 20 21 22 23 24 25 26 27
000
FTPQ31 PGUM 042321
TAFGUM
TAF
PGUM 042321Z 0500/0606 08015G22KT P6SM SCT024
     FM050900 07010KT P6SM VCSH SCT020 SCT050
     FM060100 08015G22KT P6SM VCSH SCT025=

USA.gov is the U.S. government's official web portal to all federal, state and local government web resources and services.